Content
SEND FEEDBACK

Daily
Averages
Monthly
Summary
French Polynesia

PAPEETE, FRENCH POLYNESIA


Home > Oceania > French Polynesia
Elevation: 2 meters     Latitude: 17 33S     Longitude: 149 36W

WEATHER
 
SELECT A DAY
Number of Records: 208,134;   Date Range: 6/30/96 - 7/23/14
 
SHARE

PRINT THIS DATA

[ ← Previous Day ]
WEATHER ALMANAC - 14 MAY, 2013
[ Next Day → ]
[ °F ]   °C
Weather ElementAverageHighLow
Temperature27.6 °C32 °C (1:30 pm)23.9 °C (5:00 am)
Dewpoint22.7 °C24 °C (1:00 pm)21 °C (4:00 am)
Humidity74 %89 % (1:00 am)54 % (2:00 pm)
Barometer1014.6 hPa1016.9 hPa (11:00 pm)1013.2 hPa (2:00 am)
Wind Speed6.3 km/h14.3 km/h (8:00 pm)
Weather ElementAverage
Visibility12.4 km
Wind DirectionSSE (161.9 °)

Weather ElementTotal
Precipitation---
Cooling Degree Days9.6 (Base 18.3)
Growing Degree Days17.9 (Base 10)
Averaged from 55 records on 14 May, 2013
WEATHER CONDITIONS BREAKOUT
WIND DIRECTION BREAKOUT
WEATHER BY HOUR - 14 MAY, 2013
[ °F ]   °C
Local TimeTemperatureDewpointHumidityBarometerVisibilityWind DirectionWind SpeedGust SpeedPrecipitationEventsConditions
12:30 AM25 °C22 °C83 %1014.2 hPa10 kmVariable3.7 km/hPartly Cloudy
1:00 AM25 °C23 °C89 %1014.2 hPa10 kmSSE (160°)7.4 km/hPartly Cloudy
1:30 AM25 °C22 °C83 %1014.2 hPa10 kmSSE (160°)7.4 km/hPartly Cloudy
2:00 AM25 °C22.2 °C80 %1013.9 hPa19.3 kmCalmScattered Clouds
2:00 AM25 °C22 °C83 %1013.2 hPa10 kmCalmPartly Cloudy
2:30 AM24 °C22 °C89 %1013.2 hPa10 kmEast (90°)5.6 km/hPartly Cloudy
3:00 AM24 °C22 °C89 %1013.2 hPa10 kmEast (100°)3.7 km/hPartly Cloudy
3:30 AM24 °C22 °C89 %1013.2 hPa10 kmCalm
4:00 AM24 °C21 °C83 %1013.2 hPa10 kmESE (110°)3.7 km/h
4:30 AM24 °C21 °C83 %1013.2 hPa10 kmCalm
5:00 AM23.9 °C21.1 °C79 %1013.9 hPa54.7 kmESE (120°)3.7 km/hClear
5:00 AM24 °C21 °C83 %1013.2 hPa10 kmVariable3.7 km/h
5:30 AM24 °C21 °C83 %1013.2 hPa10 kmCalm
6:00 AM24 °C21 °C83 %1014.2 hPa10 kmESE (120°)3.7 km/hPartly Cloudy
6:30 AM24 °C21 °C83 %1014.2 hPa10 kmSSE (160°)9.3 km/hPartly Cloudy
7:00 AM25 °C22 °C83 %1014.2 hPa10 kmESE (110°)5.6 km/hPartly Cloudy
7:46 AM27 °C22 °C74 %1015.2 hPa10 kmVariable5.6 km/hPartly Cloudy
8:00 AM27.8 °C22.2 °C64 %1015.2 hPa25.7 kmNE (40°)5.6 km/hPartly Cloudy
8:00 AM28 °C22 °C70 %1015.2 hPa10 kmNE (40°)5.6 km/hPartly Cloudy
8:30 AM28 °C22 °C70 %1015.2 hPa10 kmVariable1.9 km/hPartly Cloudy
9:00 AM29 °C23 °C70 %1015.2 hPa10 kmWSW (240°)9.3 km/hPartly Cloudy
9:30 AM29 °C23 °C70 %1015.2 hPa10 kmSW (220°)11.1 km/hPartly Cloudy
10:00 AM29 °C23 °C70 %1015.2 hPa10 kmSW (220°)11.1 km/hPartly Cloudy
10:30 AM30 °C23 °C66 %1015.2 hPa10 kmSW (220°)7.4 km/hPartly Cloudy
11:00 AM30 °C22.2 °C56 %1015.6 hPa25.7 kmWest (260°)5.6 km/hScattered Clouds
11:00 AM30 °C23 °C66 %1015.2 hPa10 kmWest (260°)5.6 km/hPartly Cloudy
11:30 AM30 °C23 °C66 %1014.2 hPa10 kmWSW (250°)7.4 km/hScattered Clouds
12:00 PM30 °C23 °C66 %1014.2 hPa10 kmWSW (250°)9.3 km/hMostly Cloudy
12:30 PM31 °C23 °C62 %1014.2 hPa10 kmWest (260°)7.4 km/hMostly Cloudy
1:00 PM31 °C24 °C66 %1014.2 hPa10 kmWest (260°)11.1 km/hPartly Cloudy
1:30 PM32 °C23 °C59 %1013.2 hPa10 kmWNW (290°)7.4 km/hPartly Cloudy
2:00 PM31.7 °C23.3 °C54 %1013.9 hPa25.7 kmWest (270°)10.8 km/hScattered Clouds
2:00 PM31 °C23 °C62 %1013.2 hPa10 kmVariable3.7 km/hScattered Clouds
2:30 PM32 °C23 °C59 %1013.2 hPa10 kmNW (320°)7.4 km/hScattered Clouds
3:00 PM31 °C23 °C62 %1013.2 hPa10 kmNNW (340°)11.1 km/hPartly Cloudy
3:30 PM31 °C23 °C62 %1013.2 hPa10 kmNW (310°)11.1 km/hPartly Cloudy
4:00 PM31 °C23 °C62 %1013.2 hPa10 kmNNW (330°)9.3 km/hMostly Cloudy
4:30 PM30 °C23 °C66 %1014.2 hPa10 kmNW (310°)5.6 km/hMostly Cloudy
5:00 PM29.4 °C22.8 °C60 %1014.6 hPa25.7 kmNW (310°)7.4 km/hPartly Cloudy
5:00 PM29 °C23 °C70 %1014.2 hPa10 kmNW (310°)7.4 km/hMostly Cloudy
5:30 PM29 °C24 °C74 %1014.2 hPa10 kmNW (310°)7.4 km/hMostly Cloudy
6:00 PM28 °C24 °C79 %1015.2 hPa10 kmNW (310°)11.1 km/hMostly Cloudy
6:30 PM28 °C24 °C79 %1015.2 hPa10 kmWNW (300°)7.4 km/hMostly Cloudy
7:00 PM28 °C24 °C79 %1015.2 hPa10 kmSSW (210°)7.4 km/hPartly Cloudy
7:30 PM28 °C24 °C79 %1016.3 hPa10 kmSouth (170°)9.3 km/hPartly Cloudy
8:00 PM27.2 °C23.3 °C73 %1016.3 hPa19.3 kmSouth (170°)14.3 km/hScattered Clouds
8:00 PM27 °C23 °C79 %1016.3 hPa10 kmSouth (170°)7.4 km/hPartly Cloudy
8:30 PM27 °C23 °C79 %1016.3 hPa10 kmVariable3.7 km/hPartly Cloudy
9:00 PM27 °C23 °C79 %1016.3 hPa10 kmVariable3.7 km/hPartly Cloudy
9:30 PM27 °C23 °C79 %1016.3 hPa10 kmCalmPartly Cloudy
10:00 PM27 °C23 °C79 %1016.3 hPa10 kmVariable1.9 km/hPartly Cloudy
10:30 PM27 °C23 °C79 %1016.3 hPa10 kmSSE (160°)7.4 km/hPartly Cloudy
11:00 PM26.7 °C23.3 °C77 %1016.9 hPa19.3 kmSouth (170°)10.8 km/hScattered Clouds
11:00 PM27 °C23 °C79 %1016.3 hPa10 kmSouth (170°)5.6 km/hPartly Cloudy
11:30 PM27 °C23 °C79 %1016.3 hPa10 kmSSE (160°)5.6 km/hPartly Cloudy
Hourly data recorded from NTAA, located 0 kilometers away from Papeete, French Polynesia







STORIES FROM OUR PARTNERS